Location: Bonningues
(50.7927°N, 2.0150°E)
Time: 06:33:09
(UTC+00:00)

Cosmos 389 Rocket - Pass Details

Date: 08 August 2020
Orbit: 443 x 475 km, 81.1° (Epoch: 23 September)

Event Time Altitude Azimuth Distance (km) Brightness Sun altitude
Rises 20:48:17 0° 338° (NNW) 2,456 7.5 -11.6°
Reaches altitude 10° 20:50:31 10° 326° (NNW) 1,581 6.6 -11.9°
Maximum altitude 20:53:30 28° 267° (W) 881 4.3 -12.2°
Drops below altitude 10° 20:56:29 10° 206° (SSW) 1,578 5.0 -12.5°
Enters shadow 20:57:59 - 198° (SSW) 2,149 5.6 -12.7°
